Time,TemperatureF,DewpointF,PressureIn,WindDirection,WindDirectionDegrees,WindSpeedMPH,WindSpeedGustMPH,Humidity,HourlyPrecipIn,Conditions,Clouds,dailyrainin,SoftwareType,DateUTC
2013-01-23 00:00:00,35.7,29.5,30.31,West,276,0.0,0.0,78,0.00,CLR,,0.00,WeatherDisplay:10.37,2013-01-23 05:00:00,
2013-01-23 00:04:00,35.7,29.5,30.31,West,276,0.0,0.0,78,0.00,CLR,,0.00,WeatherDisplay:10.37,2013-01-23 05:04:00,
2013-01-23 00:09:00,35.6,29.4,30.31,West,276,0.0,0.0,78,0.00,CLR,,0.00,WeatherDisplay:10.37,2013-01-23 05:09:00,
2013-01-23 00:14:00,35.5,29.3,30.31,West,276,0.0,0.0,78,0.00,CLR,,0.00,WeatherDisplay:10.37,2013-01-23 05:14:00,
2013-01-23 00:19:00,35.4,28.9,30.31,West,275,0.0,0.0,77,0.00,CLR,,0.00,WeatherDisplay:10.37,2013-01-23 05:19:00,
2013-01-23 00:24:00,35.2,28.7,30.31,West,276,0.0,0.0,77,0.00,CLR,,0.00,WeatherDisplay:10.37,2013-01-23 05:24:00,
2013-01-23 00:29:00,35.1,28.9,30.31,West,276,0.0,0.0,78,0.00,CLR,,0.00,WeatherDisplay:10.37,2013-01-23 05:29:00,
2013-01-23 00:34:00,34.9,28.7,30.31,West,276,0.0,0.0,78,0.00,CLR,,0.00,WeatherDisplay:10.37,2013-01-23 05:34:00,
2013-01-23 00:39:00,34.7,28.9,30.31,West,275,0.0,0.0,79,0.00,CLR,,0.00,WeatherDisplay:10.37,2013-01-23 05:39:00,
2013-01-23 00:44:00,34.4,28.6,30.30,West,276,0.0,0.0,79,0.00,CLR,,0.00,WeatherDisplay:10.37,2013-01-23 05:44:00,
2013-01-23 00:49:00,34.4,28.9,30.30,West,276,0.0,0.0,80,0.00,CLR,,0.00,WeatherDisplay:10.37,2013-01-23 05:49:00,
2013-01-23 00:54:00,34.4,28.9,30.30,West,276,0.0,0.0,80,0.00,CLR,,0.00,WeatherDisplay:10.37,2013-01-23 05:54:00,
2013-01-23 00:59:00,34.2,28.4,30.30,West,276,0.0,0.0,79,0.00,CLR,,0.00,WeatherDisplay:10.37,2013-01-23 05:59:00,
2013-01-23 01:04:00,34.0,28.2,30.29,West,276,0.0,0.0,79,0.00,CLR,,0.00,WeatherDisplay:10.37,2013-01-23 06:04:00,
2013-01-23 01:09:00,33.8,28.0,30.29,West,276,0.0,0.0,79,0.00,CLR,,0.00,WeatherDisplay:10.37,2013-01-23 06:09:00,
2013-01-23 01:14:00,33.7,28.2,30.29,West,275,0.0,0.0,80,0.00,CLR,,0.00,WeatherDisplay:10.37,2013-01-23 06:14:00,
2013-01-23 01:19:00,33.5,28.0,30.29,West,276,0.0,0.0,80,0.00,CLR,,0.00,WeatherDisplay:10.37,2013-01-23 06:19:00,
2013-01-23 01:24:00,33.3,28.1,30.29,West,276,0.0,0.0,81,0.00,CLR,,0.00,WeatherDisplay:10.37,2013-01-23 06:24:00,
2013-01-23 01:29:00,33.2,28.3,30.29,West,276,0.0,0.0,82,0.00,CLR,,0.00,WeatherDisplay:10.37,2013-01-23 06:29:00,
2013-01-23 01:34:00,33.1,28.2,30.29,West,276,0.0,0.0,82,0.00,CLR,,0.00,WeatherDisplay:10.37,2013-01-23 06:34:00,
2013-01-23 01:39:00,33.0,28.4,30.29,West,276,0.0,0.0,83,0.00,CLR,,0.00,WeatherDisplay:10.37,2013-01-23 06:39:00,
2013-01-23 01:44:00,32.9,28.3,30.29,West,276,0.0,0.0,83,0.00,CLR,,0.00,WeatherDisplay:10.37,2013-01-23 06:44:00,
2013-01-23 01:49:00,32.8,28.5,30.29,West,276,0.0,0.0,84,0.00,CLR,,0.00,WeatherDisplay:10.37,2013-01-23 06:49:00,
2013-01-23 01:54:00,32.8,28.5,30.30,West,275,0.0,0.0,84,0.00,CLR,,0.00,WeatherDisplay:10.37,2013-01-23 06:54:00,
2013-01-23 01:59:00,32.6,28.3,30.30,West,275,0.0,0.0,84,0.00,CLR,,0.00,WeatherDisplay:10.37,2013-01-23 06:59:00,
2013-01-23 02:04:00,32.6,28.3,30.30,West,276,0.0,0.0,84,0.00,CLR,,0.00,WeatherDisplay:10.37,2013-01-23 07:04:00,
2013-01-23 02:09:00,32.5,28.2,30.30,West,275,0.0,0.0,84,0.00,CLR,,0.00,WeatherDisplay:10.37,2013-01-23 07:09:00,
2013-01-23 02:14:00,32.4,28.1,30.30,West,276,0.0,0.0,84,0.00,CLR,,0.00,WeatherDisplay:10.37,2013-01-23 07:14:00,
2013-01-23 02:19:00,32.3,28.0,30.30,West,275,0.0,0.0,84,0.00,CLR,,0.00,WeatherDisplay:10.37,2013-01-23 07:19:00,
2013-01-23 02:24:00,32.1,27.8,30.30,West,276,0.0,0.0,84,0.00,CLR,,0.00,WeatherDisplay:10.37,2013-01-23 07:24:00,
2013-01-23 02:29:00,32.0,27.7,30.30,West,276,0.0,0.0,84,0.00,CLR,,0.00,WeatherDisplay:10.37,2013-01-23 07:29:00,
2013-01-23 02:34:00,31.9,27.6,30.30,West,276,0.0,0.0,84,0.00,CLR,,0.00,WeatherDisplay:10.37,2013-01-23 07:34:00,
2013-01-23 02:39:00,31.8,27.5,30.30,West,276,0.0,0.0,84,0.00,CLR,,0.00,WeatherDisplay:10.37,2013-01-23 07:39:00,
2013-01-23 02:44:00,31.6,27.3,30.30,West,276,0.0,0.0,84,0.00,CLR,,0.00,WeatherDisplay:10.37,2013-01-23 07:44:00,
2013-01-23 02:49:00,31.5,27.2,30.30,West,275,0.0,0.0,84,0.00,CLR,,0.00,WeatherDisplay:10.37,2013-01-23 07:49:00,
2013-01-23 02:54:00,31.5,27.5,30.30,West,276,0.0,0.0,85,0.00,CLR,,0.00,WeatherDisplay:10.37,2013-01-23 07:54:00,
2013-01-23 02:59:00,31.4,27.1,30.30,West,276,0.0,0.0,84,0.00,CLR,,0.00,WeatherDisplay:10.37,2013-01-23 07:59:00,
2013-01-23 03:04:00,31.3,27.0,30.30,West,276,0.0,0.0,84,0.00,CLR,,0.00,WeatherDisplay:10.37,2013-01-23 08:04:00,
2013-01-23 03:09:00,31.2,26.9,30.30,West,276,0.0,0.0,84,0.00,CLR,,0.00,WeatherDisplay:10.37,2013-01-23 08:09:00,
2013-01-23 03:14:00,31.1,27.1,30.30,West,275,0.0,0.0,85,0.00,CLR,,0.00,WeatherDisplay:10.37,2013-01-23 08:14:00,
2013-01-23 03:19:00,31.1,27.1,30.31,West,276,0.0,0.0,85,0.00,CLR,,0.00,WeatherDisplay:10.37,2013-01-23 08:19:00,
2013-01-23 03:24:00,31.1,27.4,30.31,West,276,0.0,0.0,86,0.00,CLR,,0.00,WeatherDisplay:10.37,2013-01-23 08:24:00,
2013-01-23 03:29:00,31.0,27.3,30.31,West,275,0.0,0.0,86,0.00,CLR,,0.00,WeatherDisplay:10.37,2013-01-23 08:29:00,
2013-01-23 03:34:00,31.0,27.3,30.31,West,276,0.0,0.0,86,0.00,CLR,,0.00,WeatherDisplay:10.37,2013-01-23 08:34:00,
2013-01-23 03:39:00,30.9,27.2,30.31,West,276,0.0,0.0,86,0.00,CLR,,0.00,WeatherDisplay:10.37,2013-01-23 08:39:00,
2013-01-23 03:44:00,30.8,27.1,30.31,West,276,0.0,0.0,86,0.00,CLR,,0.00,WeatherDisplay:10.37,2013-01-23 08:44:00,
2013-01-23 03:49:00,30.8,27.1,30.31,West,276,0.0,0.0,86,0.00,CLR,,0.00,WeatherDisplay:10.37,2013-01-23 08:49:00,
2013-01-23 03:54:00,30.7,27.0,30.31,West,276,0.0,0.0,86,0.00,CLR,,0.00,WeatherDisplay:10.37,2013-01-23 08:54:00,
2013-01-23 03:59:00,30.6,26.9,30.31,West,276,0.0,0.0,86,0.00,CLR,,0.00,WeatherDisplay:10.37,2013-01-23 08:59:00,
2013-01-23 04:04:00,30.6,26.6,30.31,West,276,0.0,0.0,85,0.00,CLR,,0.00,WeatherDisplay:10.37,2013-01-23 09:04:00,
2013-01-23 04:09:00,30.5,26.5,30.31,West,276,0.0,0.0,85,0.00,CLR,,0.00,WeatherDisplay:10.37,2013-01-23 09:09:00,
2013-01-23 04:14:00,30.4,26.4,30.31,West,276,0.0,0.0,85,0.00,CLR,,0.00,WeatherDisplay:10.37,2013-01-23 09:14:00,
2013-01-23 04:19:00,30.3,26.3,30.31,West,276,0.0,0.0,85,0.00,CLR,,0.00,WeatherDisplay:10.37,2013-01-23 09:19:00,
2013-01-23 04:24:00,30.3,26.6,30.32,West,275,0.0,0.0,86,0.00,CLR,,0.00,WeatherDisplay:10.37,2013-01-23 09:24:00,
2013-01-23 04:29:00,30.2,26.2,30.32,West,276,0.0,0.0,85,0.00,CLR,,0.00,WeatherDisplay:10.37,2013-01-23 09:29:00,
2013-01-23 04:34:00,30.1,26.1,30.31,West,275,0.0,0.0,85,0.00,CLR,,0.00,WeatherDisplay:10.37,2013-01-23 09:34:00,
2013-01-23 04:39:00,30.1,26.1,30.31,West,276,0.0,0.0,85,0.00,CLR,,0.00,WeatherDisplay:10.37,2013-01-23 09:39:00,
2013-01-23 04:44:00,30.0,26.0,30.31,West,276,0.0,0.0,85,0.00,CLR,,0.00,WeatherDisplay:10.37,2013-01-23 09:44:00,
2013-01-23 04:49:00,29.9,25.9,30.32,West,276,0.0,0.0,85,0.00,CLR,,0.00,WeatherDisplay:10.37,2013-01-23 09:49:00,
2013-01-23 04:54:00,29.9,25.9,30.32,West,276,0.0,0.0,85,0.00,CLR,,0.00,WeatherDisplay:10.37,2013-01-23 09:54:00,
2013-01-23 04:59:00,29.8,25.8,30.32,West,276,0.0,0.0,85,0.00,CLR,,0.00,WeatherDisplay:10.37,2013-01-23 09:59:00,
2013-01-23 05:04:00,29.7,26.0,30.32,West,276,0.0,0.0,86,0.00,CLR,,0.00,WeatherDisplay:10.37,2013-01-23 10:04:00,
2013-01-23 05:09:00,29.7,26.0,30.32,West,276,0.0,0.0,86,0.00,CLR,,0.00,WeatherDisplay:10.37,2013-01-23 10:09:00,
2013-01-23 05:14:00,29.7,26.0,30.32,West,276,0.0,0.0,86,0.00,CLR,,0.00,WeatherDisplay:10.37,2013-01-23 10:14:00,
2013-01-23 05:19:00,29.7,26.0,30.32,West,275,0.0,0.0,86,0.00,CLR,,0.00,WeatherDisplay:10.37,2013-01-23 10:19:00,
2013-01-23 05:24:00,29.7,26.0,30.32,West,276,0.0,0.0,86,0.00,CLR,,0.00,WeatherDisplay:10.37,2013-01-23 10:24:00,
2013-01-23 05:29:00,29.6,25.9,30.33,West,276,0.0,0.0,86,0.00,CLR,,0.00,WeatherDisplay:10.37,2013-01-23 10:29:00,
2013-01-23 05:34:00,29.5,25.8,30.33,West,276,0.0,0.0,86,0.00,CLR,,0.00,WeatherDisplay:10.37,2013-01-23 10:34:00,
2013-01-23 05:39:00,29.5,25.8,30.33,West,276,0.0,0.0,86,0.00,CLR,,0.00,WeatherDisplay:10.37,2013-01-23 10:39:00,
2013-01-23 05:44:00,29.4,25.7,30.33,West,276,0.0,0.0,86,0.00,CLR,,0.00,WeatherDisplay:10.37,2013-01-23 10:44:00,
2013-01-23 05:49:00,29.4,25.7,30.33,West,276,0.0,0.0,86,0.00,CLR,,0.00,WeatherDisplay:10.37,2013-01-23 10:49:00,
2013-01-23 05:54:00,29.4,26.0,30.33,West,276,0.0,0.0,87,0.00,CLR,,0.00,WeatherDisplay:10.37,2013-01-23 10:54:00,
2013-01-23 05:59:00,29.3,25.9,30.33,West,276,0.0,0.0,87,0.00,CLR,,0.00,WeatherDisplay:10.37,2013-01-23 10:59:00,
2013-01-23 06:04:00,29.3,25.9,30.33,West,276,0.0,0.0,87,0.00,CLR,,0.00,WeatherDisplay:10.37,2013-01-23 11:04:00,
2013-01-23 06:09:00,29.2,25.5,30.33,West,275,0.0,0.0,86,0.00,CLR,,0.00,WeatherDisplay:10.37,2013-01-23 11:09:00,
2013-01-23 06:14:00,29.2,25.5,30.33,West,276,0.0,0.0,86,0.00,CLR,,0.00,WeatherDisplay:10.37,2013-01-23 11:14:00,
2013-01-23 06:19:00,29.1,25.4,30.34,West,275,0.0,0.0,86,0.00,CLR,,0.00,WeatherDisplay:10.37,2013-01-23 11:19:00,
2013-01-23 06:24:00,29.0,25.3,30.34,West,275,0.0,0.0,86,0.00,CLR,,0.00,WeatherDisplay:10.37,2013-01-23 11:24:00,
2013-01-23 06:29:00,29.0,25.3,30.34,West,275,0.0,0.0,86,0.00,CLR,,0.00,WeatherDisplay:10.37,2013-01-23 11:29:00,
2013-01-23 06:35:00,28.9,25.2,30.34,West,276,0.0,0.0,86,0.00,CLR,,0.00,WeatherDisplay:10.37,2013-01-23 11:35:00,
2013-01-23 06:40:00,28.9,25.5,30.34,West,276,0.0,0.0,87,0.00,CLR,,0.00,WeatherDisplay:10.37,2013-01-23 11:40:00,
2013-01-23 06:45:00,28.8,25.4,30.35,West,276,0.0,0.0,87,0.00,CLR,,0.00,WeatherDisplay:10.37,2013-01-23 11:45:00,
2013-01-23 06:50:00,28.8,25.4,30.35,West,276,0.0,0.0,87,0.00,CLR,,0.00,WeatherDisplay:10.37,2013-01-23 11:50:00,
2013-01-23 06:55:00,28.7,25.3,30.35,West,276,0.0,0.0,87,0.00,CLR,,0.00,WeatherDisplay:10.37,2013-01-23 11:55:00,
2013-01-23 07:00:00,28.7,25.3,30.36,West,276,0.0,0.0,87,0.00,CLR,,0.00,WeatherDisplay:10.37,2013-01-23 12:00:00,
2013-01-23 07:05:00,28.6,25.2,30.36,West,276,0.0,0.0,87,0.00,CLR,,0.00,WeatherDisplay:10.37,2013-01-23 12:05:00,
2013-01-23 07:10:00,28.6,25.2,30.36,West,275,0.0,0.0,87,0.00,CLR,,0.00,WeatherDisplay:10.37,2013-01-23 12:10:00,
2013-01-23 07:15:00,28.5,25.1,30.36,West,275,0.0,0.0,87,0.00,CLR,,0.00,WeatherDisplay:10.37,2013-01-23 12:15:00,
2013-01-23 07:20:00,28.5,25.1,30.36,West,276,0.0,0.0,87,0.00,CLR,,0.00,WeatherDisplay:10.37,2013-01-23 12:20:00,
2013-01-23 07:25:00,28.5,25.1,30.37,West,276,0.0,0.0,87,0.00,CLR,,0.00,WeatherDisplay:10.37,2013-01-23 12:25:00,
2013-01-23 07:30:00,28.5,25.1,30.37,West,276,0.0,0.0,87,0.00,CLR,,0.00,WeatherDisplay:10.37,2013-01-23 12:30:00,
2013-01-23 07:35:00,28.4,25.0,30.37,West,276,0.0,0.0,87,0.00,CLR,,0.00,WeatherDisplay:10.37,2013-01-23 12:35:00,
2013-01-23 07:40:00,28.4,25.0,30.37,West,276,0.0,0.0,87,0.00,CLR,,0.00,WeatherDisplay:10.37,2013-01-23 12:40:00,
2013-01-23 07:45:00,28.4,25.0,30.37,West,276,0.0,0.0,87,0.00,CLR,,0.00,WeatherDisplay:10.37,2013-01-23 12:45:00,
2013-01-23 07:50:00,28.4,25.0,30.37,West,276,0.0,0.0,87,0.00,CLR,,0.00,WeatherDisplay:10.37,2013-01-23 12:50:00,
2013-01-23 07:55:00,28.3,25.2,30.38,West,276,0.0,0.0,88,0.00,CLR,,0.00,WeatherDisplay:10.37,2013-01-23 12:55:00,
2013-01-23 08:00:00,28.4,25.3,30.38,West,276,0.0,0.0,88,0.00,CLR,,0.00,WeatherDisplay:10.37,2013-01-23 13:00:00,
2013-01-23 08:05:00,28.6,25.5,30.38,West,276,0.0,0.0,88,0.00,CLR,,0.00,WeatherDisplay:10.37,2013-01-23 13:05:00,
2013-01-23 08:10:00,28.7,25.6,30.38,West,276,0.0,0.0,88,0.00,CLR,,0.00,WeatherDisplay:10.37,2013-01-23 13:10:00,
2013-01-23 08:15:00,29.0,26.2,30.38,West,276,0.0,0.0,89,0.00,CLR,,0.00,WeatherDisplay:10.37,2013-01-23 13:15:00,
2013-01-23 08:20:00,29.2,26.4,30.38,West,276,0.0,0.0,89,0.00,CLR,,0.00,WeatherDisplay:10.37,2013-01-23 13:20:00,
2013-01-23 08:25:00,29.6,26.8,30.38,West,276,0.0,0.0,89,0.00,CLR,,0.00,WeatherDisplay:10.37,2013-01-23 13:25:00,
2013-01-23 08:30:00,30.0,27.2,30.38,West,276,0.0,0.0,89,0.00,CLR,,0.00,WeatherDisplay:10.37,2013-01-23 13:30:00,
2013-01-23 08:35:00,30.4,27.5,30.38,West,276,0.0,0.0,89,0.00,CLR,,0.00,WeatherDisplay:10.37,2013-01-23 13:35:00,
2013-01-23 08:40:00,31.0,28.4,30.38,West,276,0.0,0.0,90,0.00,CLR,,0.00,WeatherDisplay:10.37,2013-01-23 13:40:00,
2013-01-23 08:45:00,31.5,28.6,30.39,West,276,0.0,0.0,89,0.00,CLR,,0.00,WeatherDisplay:10.37,2013-01-23 13:45:00,
2013-01-23 08:50:00,32.1,29.2,30.39,West,276,0.0,0.0,89,0.00,CLR,,0.00,WeatherDisplay:10.37,2013-01-23 13:50:00,
2013-01-23 08:55:00,32.8,29.6,30.39,West,276,0.0,0.0,88,0.00,CLR,,0.00,WeatherDisplay:10.37,2013-01-23 13:55:00,
2013-01-23 09:00:00,33.6,29.6,30.39,West,276,0.0,0.0,85,0.00,CLR,,0.00,WeatherDisplay:10.37,2013-01-23 14:00:00,
2013-01-23 09:05:00,34.4,29.5,30.40,West,276,0.0,0.0,82,0.00,CLR,,0.00,WeatherDisplay:10.37,2013-01-23 14:05:00,
2013-01-23 09:10:00,35.1,29.2,30.40,West,276,0.0,0.0,79,0.00,CLR,,0.00,WeatherDisplay:10.37,2013-01-23 14:10:00,
2013-01-23 09:15:00,36.0,29.5,30.40,West,276,0.0,0.0,77,0.00,CLR,,0.00,WeatherDisplay:10.37,2013-01-23 14:15:00,
2013-01-23 09:20:00,36.6,29.1,30.40,West,276,0.0,0.0,74,0.00,CLR,,0.00,WeatherDisplay:10.37,2013-01-23 14:20:00,
2013-01-23 09:25:00,37.4,28.9,30.40,West,275,0.0,0.0,71,0.00,CLR,,0.00,WeatherDisplay:10.37,2013-01-23 14:25:00,
2013-01-23 09:30:00,37.9,28.3,30.40,West,276,0.0,0.0,68,0.00,CLR,,0.00,WeatherDisplay:10.37,2013-01-23 14:30:00,
2013-01-23 09:35:00,38.7,27.9,30.40,NW,310,0.0,0.0,65,0.00,CLR,,0.00,WeatherDisplay:10.37,2013-01-23 14:35:00,
2013-01-23 09:40:00,39.5,28.3,30.40,NW,309,0.0,0.0,64,0.00,CLR,,0.00,WeatherDisplay:10.37,2013-01-23 14:40:00,
2013-01-23 09:45:00,40.2,27.8,30.40,NW,309,0.0,0.0,61,0.00,CLR,,0.00,WeatherDisplay:10.37,2013-01-23 14:45:00,
2013-01-23 09:50:00,40.7,27.9,30.41,NW,313,0.0,0.0,60,0.00,CLR,,0.00,WeatherDisplay:10.37,2013-01-23 14:50:00,
2013-01-23 09:55:00,41.4,28.5,30.41,West,266,0.0,0.0,60,0.00,CLR,,0.00,WeatherDisplay:10.37,2013-01-23 14:55:00,
2013-01-23 10:00:00,42.0,28.3,30.41,WNW,284,0.0,0.0,58,0.00,CLR,,0.00,WeatherDisplay:10.37,2013-01-23 15:00:00,
2013-01-23 10:05:00,42.5,28.3,30.41,West,270,0.0,0.0,57,0.00,CLR,,0.00,WeatherDisplay:10.37,2013-01-23 15:05:00,
2013-01-23 10:10:00,43.1,28.5,30.41,West,281,1.1,0.0,56,0.00,CLR,,0.00,WeatherDisplay:10.37,2013-01-23 15:10:00,
2013-01-23 10:15:00,43.6,28.0,30.41,West,281,4.6,4.6,54,0.00,CLR,,0.00,WeatherDisplay:10.37,2013-01-23 15:15:00,
2013-01-23 10:20:00,44.1,28.9,30.41,NNW,329,4.0,4.0,55,0.00,CLR,,0.00,WeatherDisplay:10.37,2013-01-23 15:20:00,
2013-01-23 10:25:00,44.6,28.5,30.41,WNW,284,1.1,1.1,53,0.00,CLR,,0.00,WeatherDisplay:10.37,2013-01-23 15:25:00,
2013-01-23 10:30:00,45.5,29.8,30.41,WNW,287,0.0,0.0,54,0.00,CLR,,0.00,WeatherDisplay:10.37,2013-01-23 15:30:00,
2013-01-23 10:35:00,46.4,29.2,30.41,WNW,294,1.1,0.0,51,0.00,CLR,,0.00,WeatherDisplay:10.37,2013-01-23 15:35:00,
2013-01-23 10:40:00,47.1,28.9,30.41,West,274,1.0,1.0,49,0.00,CLR,,0.00,WeatherDisplay:10.37,2013-01-23 15:40:00,
2013-01-23 10:45:00,47.7,28.9,30.41,West,272,9.2,9.2,48,0.00,CLR,,0.00,WeatherDisplay:10.37,2013-01-23 15:45:00,
2013-01-23 10:50:00,48.1,28.8,30.41,West,263,2.3,3.2,47,0.00,CLR,,0.00,WeatherDisplay:10.37,2013-01-23 15:50:00,
2013-01-23 10:55:00,48.5,28.6,30.41,WNW,286,1.1,1.1,46,0.00,CLR,,0.00,WeatherDisplay:10.37,2013-01-23 15:55:00,
2013-01-23 11:00:00,49.1,29.7,30.40,West,277,2.3,2.3,47,0.00,CLR,,0.00,WeatherDisplay:10.37,2013-01-23 16:00:00,
2013-01-23 11:05:00,50.0,28.9,30.40,WNW,290,2.0,0.0,44,0.00,CLR,,0.00,WeatherDisplay:10.37,2013-01-23 16:05:00,
2013-01-23 11:10:00,50.5,28.8,30.40,WNW,303,6.9,6.9,43,0.00,CLR,,0.00,WeatherDisplay:10.37,2013-01-23 16:10:00,
2013-01-23 11:15:00,51.1,29.4,30.40,NW,321,1.1,0.0,43,0.00,CLR,,0.00,WeatherDisplay:10.37,2013-01-23 16:15:00,
2013-01-23 11:20:00,51.8,30.0,30.39,WNW,283,5.8,5.8,43,0.00,CLR,,0.00,WeatherDisplay:10.37,2013-01-23 16:20:00,
2013-01-23 11:25:00,51.8,28.2,30.39,WSW,256,8.1,8.1,40,0.00,CLR,,0.00,WeatherDisplay:10.37,2013-01-23 16:25:00,
2013-01-23 11:30:00,51.6,28.6,30.39,WNW,282,3.0,10.0,41,0.00,CLR,,0.00,WeatherDisplay:10.37,2013-01-23 16:30:00,
2013-01-23 11:35:00,51.6,28.6,30.38,West,279,10.0,10.0,41,0.00,CLR,,0.00,WeatherDisplay:10.37,2013-01-23 16:35:00,
2013-01-23 11:40:00,51.6,27.4,30.38,WNW,297,13.8,13.8,39,0.00,CLR,,0.00,WeatherDisplay:10.37,2013-01-23 16:40:00,
2013-01-23 11:45:00,51.8,28.2,30.38,West,280,10.4,10.4,40,0.00,CLR,,0.00,WeatherDisplay:10.37,2013-01-23 16:45:00,
2013-01-23 11:50:00,52.3,28.7,30.38,NNW,329,8.1,8.1,40,0.00,CLR,,0.00,WeatherDisplay:10.37,2013-01-23 16:50:00,
2013-01-23 11:55:00,52.8,29.1,30.37,NW,316,9.2,9.2,40,0.00,CLR,,0.00,WeatherDisplay:10.37,2013-01-23 16:55:00,
2013-01-23 12:00:00,53.4,29.7,30.37,WNW,298,8.1,8.1,40,0.00,CLR,,0.00,WeatherDisplay:10.37,2013-01-23 17:00:00,
2013-01-23 12:05:00,53.9,28.8,30.37,West,269,9.2,9.2,38,0.00,CLR,,0.00,WeatherDisplay:10.37,2013-01-23 17:05:00,
2013-01-23 12:10:00,53.9,30.1,30.36,West,259,10.4,10.4,40,0.00,CLR,,0.00,WeatherDisplay:10.37,2013-01-23 17:10:00,
2013-01-23 12:15:00,54.1,29.7,30.36,West,267,1.1,1.1,39,0.00,CLR,,0.00,WeatherDisplay:10.37,2013-01-23 17:15:00,
2013-01-23 12:20:00,54.8,30.3,30.35,WNW,287,1.1,1.1,39,0.00,CLR,,0.00,WeatherDisplay:10.37,2013-01-23 17:20:00,
2013-01-23 12:25:00,55.2,30.7,30.35,West,276,1.1,1.1,39,0.00,CLR,,0.00,WeatherDisplay:10.37,2013-01-23 17:25:00,
2013-01-23 12:30:00,55.4,30.2,30.34,West,275,1.1,1.1,38,0.00,CLR,,0.00,WeatherDisplay:10.37,2013-01-23 17:30:00,
2013-01-23 12:35:00,55.5,30.9,30.34,SW,230,1.1,1.1,39,0.00,CLR,,0.00,WeatherDisplay:10.37,2013-01-23 17:35:00,
2013-01-23 12:40:00,55.6,31.0,30.33,West,274,10.4,10.4,39,0.00,CLR,,0.00,WeatherDisplay:10.37,2013-01-23 17:40:00,
2013-01-23 12:45:00,55.5,31.5,30.33,NW,307,9.2,9.2,40,0.00,CLR,,0.00,WeatherDisplay:10.37,2013-01-23 17:45:00,
2013-01-23 12:50:00,55.9,31.9,30.33,West,269,2.3,2.3,40,0.00,CLR,,0.00,WeatherDisplay:10.37,2013-01-23 17:50:00,
2013-01-23 12:55:00,56.0,32.0,30.33,SW,215,4.6,4.6,40,0.00,CLR,,0.00,WeatherDisplay:10.37,2013-01-23 17:55:00,
2013-01-23 13:00:00,56.4,32.4,30.32,WNW,284,3.0,3.0,40,0.00,CLR,,0.00,WeatherDisplay:10.37,2013-01-23 18:00:00,
2013-01-23 13:05:00,56.7,32.6,30.32,South,187,1.1,1.1,40,0.00,CLR,,0.00,WeatherDisplay:10.37,2013-01-23 18:05:00,
2013-01-23 13:10:00,56.9,33.4,30.32,WNW,284,2.0,2.0,41,0.00,CLR,,0.00,WeatherDisplay:10.37,2013-01-23 18:10:00,
2013-01-23 13:15:00,56.8,33.3,30.32,West,280,18.4,18.4,41,0.00,CLR,,0.00,WeatherDisplay:10.37,2013-01-23 18:15:00,
2013-01-23 13:20:00,56.5,33.7,30.32,West,276,8.1,8.1,42,0.00,CLR,,0.00,WeatherDisplay:10.37,2013-01-23 18:20:00,
2013-01-23 13:25:00,56.7,34.4,30.31,NW,321,10.4,10.4,43,0.00,CLR,,0.00,WeatherDisplay:10.37,2013-01-23 18:25:00,
2013-01-23 13:30:00,56.8,33.9,30.31,West,260,3.5,3.5,42,0.00,CLR,,0.00,WeatherDisplay:10.37,2013-01-23 18:30:00,
2013-01-23 13:35:00,56.9,34.0,30.31,West,260,2.3,2.3,42,0.00,CLR,,0.00,WeatherDisplay:10.37,2013-01-23 18:35:00,
2013-01-23 13:40:00,57.0,34.7,30.31,West,270,11.5,11.5,43,0.00,CLR,,0.00,WeatherDisplay:10.37,2013-01-23 18:40:00,
2013-01-23 13:45:00,57.2,34.9,30.30,North,360,3.5,3.5,43,0.00,CLR,,0.00,WeatherDisplay:10.37,2013-01-23 18:45:00,
2013-01-23 13:50:00,57.4,35.1,30.30,WNW,292,3.5,3.5,43,0.00,CLR,,0.00,WeatherDisplay:10.37,2013-01-23 18:50:00,
2013-01-23 13:55:00,57.5,35.2,30.30,West,271,3.5,3.5,43,0.00,CLR,,0.00,WeatherDisplay:10.37,2013-01-23 18:55:00,
2013-01-23 14:00:00,57.6,34.7,30.30,WSW,249,11.5,11.5,42,0.00,CLR,,0.00,WeatherDisplay:10.37,2013-01-23 19:00:00,
2013-01-23 14:05:00,57.5,35.2,30.30,West,277,13.8,13.8,43,0.00,CLR,,0.00,WeatherDisplay:10.37,2013-01-23 19:05:00,
2013-01-23 14:10:00,57.1,34.8,30.29,West,278,12.7,12.7,43,0.00,CLR,,0.00,WeatherDisplay:10.37,2013-01-23 19:10:00,
2013-01-23 14:15:00,57.2,35.5,30.29,West,262,9.2,9.2,44,0.00,CLR,,0.00,WeatherDisplay:10.37,2013-01-23 19:15:00,
2013-01-23 14:20:00,57.5,35.7,30.28,WNW,301,13.8,13.8,44,0.00,CLR,,0.00,WeatherDisplay:10.37,2013-01-23 19:20:00,
2013-01-23 14:25:00,57.6,35.2,30.28,North,351,12.7,12.7,43,0.00,CLR,,0.00,WeatherDisplay:10.37,2013-01-23 19:25:00,
2013-01-23 14:30:00,58.2,35.8,30.28,NW,319,3.5,3.5,43,0.00,CLR,,0.00,WeatherDisplay:10.37,2013-01-23 19:30:00,
2013-01-23 14:35:00,58.6,35.6,30.28,NNW,336,3.0,3.0,42,0.00,CLR,,0.00,WeatherDisplay:10.37,2013-01-23 19:35:00,
2013-01-23 14:40:00,59.0,35.3,30.27,WSW,248,11.5,11.5,41,0.00,CLR,,0.00,WeatherDisplay:10.37,2013-01-23 19:40:00,
2013-01-23 14:45:00,58.8,35.7,30.27,West,281,3.5,3.5,42,0.00,CLR,,0.00,WeatherDisplay:10.37,2013-01-23 19:45:00,
2013-01-23 14:50:00,58.6,36.2,30.27,NW,304,1.1,1.1,43,0.00,CLR,,0.00,WeatherDisplay:10.37,2013-01-23 19:50:00,
2013-01-23 14:55:00,58.6,36.2,30.27,West,274,3.5,3.5,43,0.00,CLR,,0.00,WeatherDisplay:10.37,2013-01-23 19:55:00,
2013-01-23 15:00:00,58.4,36.0,30.27,WSW,243,8.1,8.1,43,0.00,CLR,,0.00,WeatherDisplay:10.37,2013-01-23 20:00:00,
2013-01-23 15:05:00,58.5,36.6,30.27,WNW,294,9.2,9.2,44,0.00,CLR,,0.00,WeatherDisplay:10.37,2013-01-23 20:05:00,
2013-01-23 15:10:00,58.5,36.1,30.26,West,271,11.5,11.5,43,0.00,CLR,,0.00,WeatherDisplay:10.37,2013-01-23 20:10:00,
2013-01-23 15:15:00,58.4,36.0,30.26,West,281,11.5,11.5,43,0.00,CLR,,0.00,WeatherDisplay:10.37,2013-01-23 20:15:00,
2013-01-23 15:20:00,58.4,36.0,30.26,NW,312,15.0,15.0,43,0.00,CLR,,0.00,WeatherDisplay:10.37,2013-01-23 20:20:00,
2013-01-23 15:25:00,58.2,36.4,30.26,WNW,292,3.5,3.5,44,0.00,CLR,,0.00,WeatherDisplay:10.37,2013-01-23 20:25:00,
2013-01-23 15:30:00,58.3,36.5,30.26,WNW,302,11.5,11.5,44,0.00,CLR,,0.00,WeatherDisplay:10.37,2013-01-23 20:30:00,
2013-01-23 15:35:00,58.3,36.5,30.26,WSW,252,3.5,3.5,44,0.00,CLR,,0.00,WeatherDisplay:10.37,2013-01-23 20:35:00,
2013-01-23 15:40:00,58.4,36.6,30.26,WSW,246,9.2,9.2,44,0.00,CLR,,0.00,WeatherDisplay:10.37,2013-01-23 20:40:00,
2013-01-23 15:45:00,58.4,36.6,30.26,NW,320,10.4,10.4,44,0.00,CLR,,0.00,WeatherDisplay:10.37,2013-01-23 20:45:00,
2013-01-23 15:50:00,58.3,35.9,30.26,NW,306,9.0,9.0,43,0.00,CLR,,0.00,WeatherDisplay:10.37,2013-01-23 20:50:00,
2013-01-23 15:55:00,58.1,35.7,30.25,West,275,10.4,10.4,43,0.00,CLR,,0.00,WeatherDisplay:10.37,2013-01-23 20:55:00,
2013-01-23 16:00:00,58.2,36.4,30.25,WSW,249,6.9,6.9,44,0.00,CLR,,0.00,WeatherDisplay:10.37,2013-01-23 21:00:00,
2013-01-23 16:05:00,58.4,36.6,30.25,SW,234,8.1,8.1,44,0.00,CLR,,0.00,WeatherDisplay:10.37,2013-01-23 21:05:00,
2013-01-23 16:10:00,58.4,36.6,30.25,WSW,243,2.3,2.3,44,0.00,CLR,,0.00,WeatherDisplay:10.37,2013-01-23 21:10:00,
2013-01-23 16:15:00,58.6,36.2,30.25,WNW,288,5.0,5.0,43,0.00,CLR,,0.00,WeatherDisplay:10.37,2013-01-23 21:15:00,
2013-01-23 16:20:00,58.4,36.0,30.25,NW,311,11.5,11.5,43,0.00,CLR,,0.00,WeatherDisplay:10.37,2013-01-23 21:20:00,
2013-01-23 16:25:00,58.3,36.5,30.25,West,270,11.5,11.5,44,0.00,CLR,,0.00,WeatherDisplay:10.37,2013-01-23 21:25:00,
2013-01-23 16:30:00,58.1,35.7,30.26,WNW,286,12.7,12.7,43,0.00,CLR,,0.00,WeatherDisplay:10.37,2013-01-23 21:30:00,
2013-01-23 16:35:00,58.0,36.2,30.25,WNW,294,3.5,3.5,44,0.00,CLR,,0.00,WeatherDisplay:10.37,2013-01-23 21:35:00,
2013-01-23 16:40:00,57.8,36.0,30.25,NW,310,9.2,9.2,44,0.00,CLR,,0.00,WeatherDisplay:10.37,2013-01-23 21:40:00,
2013-01-23 16:45:00,57.7,36.5,30.25,WNW,282,8.0,8.0,45,0.00,CLR,,0.00,WeatherDisplay:10.37,2013-01-23 21:45:00,
2013-01-23 16:50:00,57.5,36.3,30.26,WNW,286,9.2,9.2,45,0.00,CLR,,0.00,WeatherDisplay:10.37,2013-01-23 21:50:00,
2013-01-23 16:55:00,57.3,36.1,30.26,WNW,283,2.3,2.3,45,0.00,CLR,,0.00,WeatherDisplay:10.37,2013-01-23 21:55:00,
2013-01-23 17:00:00,57.2,36.0,30.26,NW,306,3.5,3.5,45,0.00,CLR,,0.00,WeatherDisplay:10.37,2013-01-23 22:00:00,
2013-01-23 17:05:00,57.0,36.4,30.26,WNW,302,0.0,0.0,46,0.00,CLR,,0.00,WeatherDisplay:10.37,2013-01-23 22:05:00,
2013-01-23 17:10:00,56.8,36.2,30.26,WNW,298,1.1,1.1,46,0.00,CLR,,0.00,WeatherDisplay:10.37,2013-01-23 22:10:00,
2013-01-23 17:15:00,56.7,36.1,30.26,West,279,1.1,1.1,46,0.00,CLR,,0.00,WeatherDisplay:10.37,2013-01-23 22:15:00,
2013-01-23 17:20:00,56.5,36.5,30.26,West,269,0.0,0.0,47,0.00,CLR,,0.00,WeatherDisplay:10.37,2013-01-23 22:20:00,
2013-01-23 17:25:00,56.3,36.3,30.26,West,269,0.0,0.0,47,0.00,CLR,,0.00,WeatherDisplay:10.37,2013-01-23 22:25:00,
2013-01-23 17:30:00,56.1,36.7,30.26,West,269,0.0,0.0,48,0.00,CLR,,0.00,WeatherDisplay:10.37,2013-01-23 22:30:00,
2013-01-23 17:35:00,55.9,36.5,30.26,West,259,0.0,0.0,48,0.00,CLR,,0.00,WeatherDisplay:10.37,2013-01-23 22:35:00,
2013-01-23 17:40:00,55.7,36.8,30.26,West,259,0.0,0.0,49,0.00,CLR,,0.00,WeatherDisplay:10.37,2013-01-23 22:40:00,
2013-01-23 17:45:00,55.4,37.1,30.26,West,259,0.0,0.0,50,0.00,CLR,,0.00,WeatherDisplay:10.37,2013-01-23 22:45:00,
2013-01-23 17:50:00,55.1,37.3,30.26,West,259,0.0,0.0,51,0.00,CLR,,0.00,WeatherDisplay:10.37,2013-01-23 22:50:00,
2013-01-23 17:55:00,54.7,36.9,30.26,West,259,0.0,0.0,51,0.00,CLR,,0.00,WeatherDisplay:10.37,2013-01-23 22:55:00,
2013-01-23 18:00:00,54.2,36.9,30.26,West,259,0.0,0.0,52,0.00,CLR,,0.00,WeatherDisplay:10.37,2013-01-23 23:00:00,
2013-01-23 18:05:00,53.7,37.0,30.26,West,259,0.0,0.0,53,0.00,CLR,,0.00,WeatherDisplay:10.37,2013-01-23 23:05:00,
2013-01-23 18:10:00,53.1,37.3,30.26,West,259,0.0,0.0,55,0.00,CLR,,0.00,WeatherDisplay:10.37,2013-01-23 23:10:00,
2013-01-23 18:15:00,52.5,36.8,30.26,West,259,0.0,0.0,55,0.00,CLR,,0.00,WeatherDisplay:10.37,2013-01-23 23:15:00,
2013-01-23 18:20:00,51.9,37.1,30.26,West,259,0.0,0.0,57,0.00,CLR,,0.00,WeatherDisplay:10.37,2013-01-23 23:20:00,
2013-01-23 18:25:00,51.3,37.0,30.26,West,259,0.0,0.0,58,0.00,CLR,,0.00,WeatherDisplay:10.37,2013-01-23 23:25:00,
2013-01-23 18:30:00,50.9,37.1,30.26,West,259,0.0,0.0,59,0.00,CLR,,0.00,WeatherDisplay:10.37,2013-01-23 23:30:00,
2013-01-23 18:35:00,50.3,36.9,30.26,West,259,0.0,0.0,60,0.00,CLR,,0.00,WeatherDisplay:10.37,2013-01-23 23:35:00,
2013-01-23 18:40:00,49.6,37.1,30.26,West,259,0.0,0.0,62,0.00,CLR,,0.00,WeatherDisplay:10.37,2013-01-23 23:40:00,
2013-01-23 18:45:00,49.2,36.7,30.26,West,259,0.0,0.0,62,0.00,CLR,,0.00,WeatherDisplay:10.37,2013-01-23 23:45:00,
2013-01-23 18:50:00,48.8,36.8,30.26,West,259,0.0,0.0,63,0.00,CLR,,0.00,WeatherDisplay:10.37,2013-01-23 23:50:00,
2013-01-23 18:55:00,48.4,36.8,30.26,West,259,0.0,0.0,64,0.00,CLR,,0.00,WeatherDisplay:10.37,2013-01-23 23:55:00,
2013-01-23 19:00:00,48.0,36.8,30.26,West,259,0.0,0.0,65,0.00,CLR,,0.00,WeatherDisplay:10.37,2013-01-24 00:00:00,
2013-01-23 19:05:00,47.6,36.8,30.26,West,259,0.0,0.0,66,0.00,CLR,,0.00,WeatherDisplay:10.37,2013-01-24 00:05:00,
2013-01-23 19:10:00,47.3,37.3,30.26,West,259,0.0,0.0,68,0.00,CLR,,0.00,WeatherDisplay:10.37,2013-01-24 00:10:00,
2013-01-23 19:15:00,47.0,37.0,30.26,West,259,0.0,0.0,68,0.00,CLR,,0.00,WeatherDisplay:10.37,2013-01-24 00:15:00,
2013-01-23 19:20:00,46.7,36.7,30.26,West,259,0.0,0.0,68,0.00,CLR,,0.00,WeatherDisplay:10.37,2013-01-24 00:20:00,
2013-01-23 19:25:00,46.3,37.0,30.26,West,259,0.0,0.0,70,0.00,CLR,,0.00,WeatherDisplay:10.37,2013-01-24 00:25:00,
2013-01-23 19:30:00,46.1,36.9,30.26,West,259,0.0,0.0,70,0.00,CLR,,0.00,WeatherDisplay:10.37,2013-01-24 00:30:00,
2013-01-23 19:35:00,45.8,36.6,30.26,West,259,0.0,0.0,70,0.00,CLR,,0.00,WeatherDisplay:10.37,2013-01-24 00:35:00,
2013-01-23 19:40:00,45.5,36.6,30.26,West,259,0.0,0.0,71,0.00,CLR,,0.00,WeatherDisplay:10.37,2013-01-24 00:40:00,
2013-01-23 19:45:00,45.2,36.4,30.26,West,259,0.0,0.0,71,0.00,CLR,,0.00,WeatherDisplay:10.37,2013-01-24 00:45:00,
2013-01-23 19:50:00,45.0,36.5,30.26,West,259,0.0,0.0,72,0.00,CLR,,0.00,WeatherDisplay:10.37,2013-01-24 00:50:00,
2013-01-23 19:55:00,44.7,36.2,30.26,West,259,0.0,0.0,72,0.00,CLR,,0.00,WeatherDisplay:10.37,2013-01-24 00:55:00,
2013-01-23 20:00:00,44.4,35.9,30.26,West,259,0.0,0.0,72,0.00,CLR,,0.00,WeatherDisplay:10.37,2013-01-24 01:00:00,
2013-01-23 20:05:00,44.1,36.0,30.27,West,259,0.0,0.0,73,0.00,CLR,,0.00,WeatherDisplay:10.37,2013-01-24 01:05:00,
2013-01-23 20:10:00,43.9,35.8,30.27,West,259,0.0,0.0,73,0.00,CLR,,0.00,WeatherDisplay:10.37,2013-01-24 01:10:00,
2013-01-23 20:15:00,43.7,35.6,30.27,West,259,0.0,0.0,73,0.00,CLR,,0.00,WeatherDisplay:10.37,2013-01-24 01:15:00,
2013-01-23 20:20:00,43.4,35.7,30.27,West,259,0.0,0.0,74,0.00,CLR,,0.00,WeatherDisplay:10.37,2013-01-24 01:20:00,
2013-01-23 20:25:00,43.2,35.8,30.27,West,259,0.0,0.0,75,0.00,CLR,,0.00,WeatherDisplay:10.37,2013-01-24 01:25:00,
2013-01-23 20:30:00,43.1,35.7,30.27,West,259,0.0,0.0,75,0.00,CLR,,0.00,WeatherDisplay:10.37,2013-01-24 01:30:00,
2013-01-23 20:35:00,42.8,35.8,30.27,West,259,0.0,0.0,76,0.00,CLR,,0.00,WeatherDisplay:10.37,2013-01-24 01:35:00,
2013-01-23 20:40:00,42.6,36.2,30.26,West,259,0.0,0.0,78,0.00,CLR,,0.00,WeatherDisplay:10.37,2013-01-24 01:40:00,
2013-01-23 20:45:00,42.3,35.9,30.26,West,259,0.0,0.0,78,0.00,CLR,,0.00,WeatherDisplay:10.37,2013-01-24 01:45:00,
2013-01-23 20:50:00,42.2,35.8,30.26,West,259,0.0,0.0,78,0.00,CLR,,0.00,WeatherDisplay:10.37,2013-01-24 01:50:00,
2013-01-23 20:55:00,42.0,35.6,30.26,West,259,0.0,0.0,78,0.00,CLR,,0.00,WeatherDisplay:10.37,2013-01-24 01:55:00,
2013-01-23 21:00:00,41.9,35.5,30.26,West,259,0.0,0.0,78,0.00,CLR,,0.00,WeatherDisplay:10.37,2013-01-24 02:00:00,
2013-01-23 21:05:00,41.7,35.3,30.26,West,259,0.0,0.0,78,0.00,CLR,,0.00,WeatherDisplay:10.37,2013-01-24 02:05:00,
2013-01-23 21:10:00,41.6,35.6,30.26,West,259,0.0,0.0,79,0.00,CLR,,0.00,WeatherDisplay:10.37,2013-01-24 02:10:00,
2013-01-23 21:15:00,41.4,35.4,30.26,West,259,0.0,0.0,79,0.00,CLR,,0.00,WeatherDisplay:10.37,2013-01-24 02:15:00,
2013-01-23 21:20:00,41.3,35.3,30.26,West,259,0.0,0.0,79,0.00,CLR,,0.00,WeatherDisplay:10.37,2013-01-24 02:20:00,
2013-01-23 21:25:00,41.1,35.4,30.26,West,259,0.0,0.0,80,0.00,CLR,,0.00,WeatherDisplay:10.37,2013-01-24 02:25:00,
2013-01-23 21:30:00,41.0,35.3,30.26,West,259,0.0,0.0,80,0.00,CLR,,0.00,WeatherDisplay:10.37,2013-01-24 02:30:00,
2013-01-23 21:35:00,40.9,35.5,30.25,West,259,0.0,0.0,81,0.00,CLR,,0.00,WeatherDisplay:10.37,2013-01-24 02:35:00,
2013-01-23 21:40:00,40.7,35.3,30.25,West,259,0.0,0.0,81,0.00,CLR,,0.00,WeatherDisplay:10.37,2013-01-24 02:40:00,
2013-01-23 21:45:00,40.5,35.1,30.25,West,259,0.0,0.0,81,0.00,CLR,,0.00,WeatherDisplay:10.37,2013-01-24 02:45:00,
2013-01-23 21:50:00,40.4,35.0,30.25,West,259,0.0,0.0,81,0.00,CLR,,0.00,WeatherDisplay:10.37,2013-01-24 02:50:00,
2013-01-23 21:55:00,40.2,35.1,30.25,West,259,0.0,0.0,82,0.00,CLR,,0.00,WeatherDisplay:10.37,2013-01-24 02:55:00,
2013-01-23 22:00:00,40.1,35.0,30.25,West,259,0.0,0.0,82,0.00,CLR,,0.00,WeatherDisplay:10.37,2013-01-24 03:00:00,
2013-01-23 22:05:00,40.0,34.9,30.25,West,259,0.0,0.0,82,0.00,CLR,,0.00,WeatherDisplay:10.37,2013-01-24 03:05:00,
2013-01-23 22:10:00,39.9,34.9,30.25,West,259,0.0,0.0,82,0.00,CLR,,0.00,WeatherDisplay:10.37,2013-01-24 03:10:00,
2013-01-23 22:15:00,39.8,34.8,30.25,West,259,0.0,0.0,82,0.00,CLR,,0.00,WeatherDisplay:10.37,2013-01-24 03:15:00,
2013-01-23 22:20:00,39.7,34.7,30.25,West,259,0.0,0.0,82,0.00,CLR,,0.00,WeatherDisplay:10.37,2013-01-24 03:20:00,
2013-01-23 22:25:00,39.6,34.9,30.26,West,259,0.0,0.0,83,0.00,CLR,,0.00,WeatherDisplay:10.37,2013-01-24 03:25:00,
2013-01-23 22:30:00,39.5,35.1,30.26,West,259,0.0,0.0,84,0.00,CLR,,0.00,WeatherDisplay:10.37,2013-01-24 03:30:00,
2013-01-23 22:35:00,39.5,35.1,30.25,West,259,0.0,0.0,84,0.00,CLR,,0.00,WeatherDisplay:10.37,2013-01-24 03:35:00,
2013-01-23 22:40:00,39.5,35.4,30.25,West,259,0.0,0.0,85,0.00,CLR,,0.00,WeatherDisplay:10.37,2013-01-24 03:40:00,
2013-01-23 22:45:00,39.4,35.3,30.25,West,259,0.0,0.0,85,0.00,CLR,,0.00,WeatherDisplay:10.37,2013-01-24 03:45:00,
2013-01-23 22:50:00,39.4,35.3,30.25,West,259,0.0,0.0,85,0.00,CLR,,0.00,WeatherDisplay:10.37,2013-01-24 03:50:00,
2013-01-23 22:55:00,39.3,35.2,30.25,West,259,0.0,0.0,85,0.00,CLR,,0.00,WeatherDisplay:10.37,2013-01-24 03:55:00,
2013-01-23 23:00:00,39.3,35.2,30.25,West,259,0.0,0.0,85,0.00,CLR,,0.00,WeatherDisplay:10.37,2013-01-24 04:00:00,
2013-01-23 23:05:00,39.3,35.2,30.25,West,259,0.0,0.0,85,0.00,CLR,,0.00,WeatherDisplay:10.37,2013-01-24 04:05:00,
2013-01-23 23:10:00,39.2,35.1,30.25,West,259,0.0,0.0,85,0.00,CLR,,0.00,WeatherDisplay:10.37,2013-01-24 04:10:00,
2013-01-23 23:15:00,39.1,34.7,30.25,West,259,0.0,0.0,84,0.00,CLR,,0.00,WeatherDisplay:10.37,2013-01-24 04:15:00,
2013-01-23 23:20:00,39.1,35.0,30.24,West,259,0.0,0.0,85,0.00,CLR,,0.00,WeatherDisplay:10.37,2013-01-24 04:20:00,
2013-01-23 23:25:00,39.0,34.9,30.24,West,259,0.0,0.0,85,0.00,CLR,,0.00,WeatherDisplay:10.37,2013-01-24 04:25:00,
2013-01-23 23:30:00,39.0,35.2,30.25,West,259,0.0,0.0,86,0.00,CLR,,0.00,WeatherDisplay:10.37,2013-01-24 04:30:00,
2013-01-23 23:35:00,39.0,35.2,30.24,West,259,0.0,0.0,86,0.00,CLR,,0.00,WeatherDisplay:10.37,2013-01-24 04:35:00,
2013-01-23 23:40:00,38.9,35.1,30.24,West,259,0.0,0.0,86,0.00,CLR,,0.00,WeatherDisplay:10.37,2013-01-24 04:40:00,
2013-01-23 23:45:00,38.9,35.1,30.24,West,259,0.0,0.0,86,0.00,CLR,,0.00,WeatherDisplay:10.37,2013-01-24 04:45:00,
2013-01-23 23:50:00,38.8,35.0,30.24,West,259,0.0,0.0,86,0.00,CLR,,0.00,WeatherDisplay:10.37,2013-01-24 04:50:00,
2013-01-23 23:55:00,38.8,35.0,30.24,West,259,0.0,0.0,86,0.00,CLR,,0.00,WeatherDisplay:10.37,2013-01-24 04:55:00,